STARLINK-11269, 60995

Orbit data source: Space-Track

STARLINK-11269, 60995 is a payload satellite owned by SpaceX/Seattle (US) in LEO that was launched on Thu, 05 Sep 2024 UTC via an FALCON 9 launch vehicle from the Air Force Eastern Test Range (AFETR). Payload-class satellites include a variety of spacecraft equipped with specific instruments for various scientific and technological missions. These include communications satellites like Starlink; space stations such as the ISS; scientific satellites like the Hubble; Earth observation satellites from companies like Planet Labs, Umbra, and HawkEye 360; GPS; miniature CubeSats for education and research; and military/defense satellites.

Loading next visibility...
Identifier
60995, 2024-158F
Orbit
LEO
Country
Flag of USUS
Related business
Manufacturer
SpaceX/Seattle
Mission
Operational Commercial Communications
Bus & Motor
STARLINK V2MD, Unknown motor
Mass
960 kg wet, ~910 kg dry
Launch date (UTC)
2024-09-05 (2 years ago)
Launch vehicle
FALCON 9
Launch site
Air Force Eastern Test Range (AFETR)
Object type
Payload
Rocket body
Debris
Shape & HBR
Box + 2 Pan, 18.1 m
Radar Cross Section
36.964 m², Large (>1 m²)

Expand to show TLE details & history
Last TLE update: 11 hours ago

TLE from 11 hours ago
0 STARLINK-11269
1 60995U 24158F   26095.44549297  .00004530  00000-0  42298-4 0  9996
2 60995  53.1590 149.6093 0000944 102.2813 257.8311 15.69668792 91781
Epoch: 2026-04-05T10:41Z
TLE epoch observation values (Epoch: 2026-04-05T10:41:30.592Z)
Latitude
Longitude
155.48102°
Altitude
360.894 km
Speed
7.694 km/s
True Right ascension
09h 58m 26s
True Declination
0° 00' 00"
Sunlit
Object was in full shadow at epoch
Visualization orbit readout
Latitude
Unknown
Longitude
Unknown
Altitude
Unknown
Speed
Unknown
Apparent Right ascension
Unknown
Apparent Declination
Unknown
Sunlit
N/A
Visualization observer readout
Local Sidereal Time
03:25:41
Azimuth
Unknown
Elevation
Unknown
Doppler factor
Unknown
Orbital elements
Apogee altitude
360.742 km
Perigee altitude
359.469 km
Semi-major axis
6,738.243 km
Eccentricity
0.00009
Inclination
53.159°
RAAN
149.6093°
Arg. of periapsis
102.2813°
True anomaly
257.82053°
Mean anomaly
257.8311°
Eccentric anomaly
257.82581°
Mean motion
3.92395 °/min
Orbital period
91.74 mins
BSTAR
0.000042298
Loading maneuver chart data...
Computing Atmospheric mass density...
Loading historical data...
Loading historical data...
Loading historical data...
Loading historical data...
Loading historical data...
Loading historical data...
Loading historical data...

Documentation

Showing up to 5 results
|